Regional Weather Roundup
Issued by NWS

Home | Current Version | Previous Version | Text Only | Print | Product List | Glossary Off
Versions: 1 2 3 4 5 6 7 8 9 10 11 12 13 14 15 16 17 18 19 20 21 22 23 24 25 26 27 28 29 30 31 32 33 34 35 36 37 38 39 40 41 42 43 44 45 46 47 48 49 50

000
ASUS45 KBOU 252107
RWRCO

WEATHER ROUNDUP FOR COLORADO
NATIONAL WEATHER SERVICE DENVER/BOULDER CO
300 PM MDT SAT APR 25 2015

NOTE: "FAIR" INDICATES FEW OR NO CLOUDS BELOW 12000 FEET WITH NO
SIGNIFICANT WEATHER AND/OR OBSTRUCTIONS TO VISIBILITY.

COZ001>005-013-030-031-252200-
...NORTHWEST COLORADO...

CITY           SKY/WX    TMP DP  RH WIND       PRES   REMARKS
CRAIG          SUNNY     54  35  48 VRB6      29.81F
HAYDEN         MOSUNNY   48  32  53 NW3       29.82F
MEEKER         SUNNY     54  34  46 E7        29.79F
MOUNT WERNER   NOT AVBL
STEAMBOAT SPGS MOSUNNY   46  33  60 CALM      29.82F
WALDEN         CLOUDY    48  28  46 S12       29.84F
$$

COZ006>008-011-252200-
...WEST CENTRAL VALLEYS...

CITY           SKY/WX    TMP DP  RH WIND       PRES   REMARKS
GRAND JUNCTION PTSUNNY   56  35  45 VRB3      29.76F
MONTROSE       MOSUNNY   54  37  52 VRB5      29.82F
EAGLE          PTSUNNY   54  36  50 SW14G21   29.84F
RIFLE          MOSUNNY   53  39  59 CALM      29.82F
DELTA          NOT AVBL
NUCLA          CLOUDY    46  43  87 NW8       29.84S
$$

COZ017>023-064>068-252200-
...SOUTHWEST COLORADO...

CITY           SKY/WX    TMP DP  RH WIND       PRES   REMARKS
DURANGO        PTSUNNY   55  38  52 NW12      29.86F
CORTEZ         MOSUNNY   60  40  47 VRB6      29.83F
PAGOSA SPRINGS RAIN      48  36  63 S9        29.91F
TELLURIDE      CLOUDY    46  27  48 S14G22    29.89F
WOLF CREEK PAS NOT AVBL
$$

COZ009-010-012-014-032>034-037-058>063-252200-
...CENTRAL COLORADO...

CITY           SKY/WX    TMP DP  RH WIND       PRES   REMARKS
ASPEN          PTSUNNY   47  31  53 N7        29.82F
BUENA VISTA    PTSUNNY   55  20  26 NW6       29.81F
COPPER MTN     CLOUDY    36  27  69 SW6G12    29.96F
BERTHOUD PASS  PTSUNNY   30  23  74 MISG      30.00S
COTTONWOOD PAS CLOUDY    45  28  53 N13G18    29.88F
GUNNISON       PTSUNNY   48  28  46 NW8       29.88S
KREMMLING      LGT RAIN  50  34  53 N7        29.85F
LEADVILLE      MOSUNNY   45  23  42 N7        29.86F
MONARCH PASS   SNOW      30  28  93 SW16G24   30.08S VSB 1/4 WCI  19
SALIDA         CLOUDY    54  34  47 SW8       29.90R
SUNLIGHT       CLOUDY    36  34  93 CALM      29.95F
WILKERSON PASS MOSUNNY   45  21  39 SW6G22    29.96S
$$

COZ069>075-252200-
...SAN LUIS VALLEY/SANGRE DE CRISTO MOUNTAINS...

CITY           SKY/WX    TMP DP  RH WIND       PRES   REMARKS
ALAMOSA        PTSUNNY   57  20  23 S10       29.82F
LA VETA PASS   PTSUNNY   45  21  39 SW7       29.92S
SAGUACHE       CLOUDY    54  28  37 NE9       29.84F
$$

COZ035-036-038>040-252200-
...NORTHERN COLORADO FRONT RANGE...

CITY           SKY/WX    TMP DP  RH WIND       PRES   REMARKS
DENVER INTL AP TSTM      60  31  33 SW20G36   29.71R
DMNS CITY PARK   N/A     69  28  21 E8        29.67F
AURORA         NOT AVBL
FRONT RANGE AP PTSUNNY   66  27  22 W6G31     29.70F
ERIE MUNI ARPT CLOUDY    66  27  22 N5        29.69S
BOULDER MUN AP RAIN      61  32  33 W6G33     29.73R
CENTENNIAL     CLOUDY    63  29  27 SE17      29.70S
BROOMFIELD     PTSUNNY   66  27  22 N13G18    29.71S
FORT COLLINS   CLOUDY    64  32  29 S15       29.70F
LONGMONT       CLOUDY    65  35  32 NW6       29.72S
$$

COZ041-046-047-076>085-087-088-252200-
...PIKES PEAK/PALMER DIVIDE AND SOUTHERN FOOTHILLS...

CITY           SKY/WX    TMP DP  RH WIND       PRES   REMARKS
COLO. SPRINGS  TSTM      61  26  26 SE17G30   29.74R
A. F. ACADEMY  PTSUNNY   60  26  27 W10G20    29.75R
ELLICOTT       CLOUDY   N/A N/A N/A S12G17    29.72F
FALCON         CLOUDY    60  22  23 SE23G35   29.78R
FORT CARSON    NOT AVBL
LIMON          PTSUNNY   67  25  20 SE15G24   29.71F
MONUMENT HILL  CLOUDY    59  21  23 S10       29.75S
TRINIDAD       MOSUNNY   70  22  16 E5        29.69F
$$

COZ042>045-048>051-090-091-252200-
...NORTHEAST COLORADO...

CITY           SKY/WX    TMP DP  RH WIND       PRES   REMARKS
GREELEY ARPT   CLOUDY    72  32  23 SE10G16   29.69F
AKRON          MOSUNNY   68  33  27 MISG      29.70F
BURLINGTON     MOSUNNY   69  37  30 N7        29.72F
WRAY           SUNNY     72  40  32 CALM      29.70S
STERLING       MOSUNNY   70  39  32 N6        29.67F
HOLYOKE        SUNNY     70  41  35 E7        29.71S
FORT MORGAN    MOSUNNY   70  29  22 E7        29.70F
$$

COZ086-089-092>099-252200-
...SOUTHEAST COLORADO...

CITY           SKY/WX    TMP DP  RH WIND       PRES   REMARKS
PUEBLO         PTSUNNY   71  18  13 SE9       29.66F
LA JUNTA       MOSUNNY   76  24  14 MISG      29.66F
LAMAR          MOSUNNY   76  26  15 VRB5      29.65F
SPRINGFIELD      N/A     74  26  16 S12G18    29.68F
$$



USA.gov is the U.S. government's official web portal to all federal, state and local government web resources and services.